Home   Weather   Nãgpur   Past weeks
Flag for India

Past Weather in Nãgpur, Maharashtra, India — Yesterday and Last 2 Weeks

Now
81 °F

Haze.


Feels Like: 79 °F
Forecast: 84 / 53 °F
Wind: 2 mph from North

Location: Nagpur Sonegaon

Current Time: Jan 16, 2019 at 3:46:58 pm

Latest Report: Jan 16, 2019 at 3:00 pm


Visibility: 2 mi

Pressure: 29.98 "Hg

Humidity: 28%

Dew Point: 45 °F

Location of NãgpurLocation

Past Weather in Nãgpur — Graph

°F

Nãgpur Temperature Yesterday

Maximum temperature yesterday: 79 °F (at 2:00 pm)
Minimum temperature yesterday: 54 °F (at 7:30 am)
Average temperature yesterday: 67 °F

High & Low Weather Summary for the Past Weeks

 TemperatureHumidityPressure
High86 °F (Jan 2, 2:30 pm)100% (Jan 13, 7:30 am)30.21 "Hg (Jan 13, 7:30 am)
Low50 °F (Jan 2, 7:00 am)16% (Jan 1, 2:30 pm)29.92 "Hg (Jan 12, 3:30 pm)
Average68 °F55%30.04 "Hg
* Reported Jan 1 2:30 pm — Jan 16 2:30 pm, Nãgpur. Weather by CustomWeather, © 2019

Note: Actual official high and low records may vary slightly from our data, if they occured in-between our weather recording intervals... More about our weather records

Advertising

Nãgpur Weather History for the Previous 24 Hours

Scroll right to see more
 ConditionsComfort  
Time TempWeatherWind HumidityBarometerVisibility
2:30 pm
Wed, Jan 16
81 °FHaze.2 mph28%29.98 "Hg2 mi
2:00 pm81 °FHaze.2 mph28%30.01 "Hg2 mi
1:30 pm81 °FHaze.2 mph28%30.01 "Hg2 mi
1:00 pm79 °FHaze.No wind28%30.04 "Hg2 mi
12:30 pm77 °FHaze.2 mph28%30.07 "Hg2 mi
12:00 pm75 °FHaze.5 mph29%30.07 "Hg2 mi
11:30 am73 °FHaze.3 mph33%30.09 "Hg2 mi
11:00 am73 °FHaze.2 mph31%30.09 "Hg2 mi
10:30 am70 °FHaze.5 mph35%30.12 "Hg2 mi
10:00 am68 °FHaze.5 mph35%30.12 "Hg2 mi
9:30 am66 °FHaze.3 mph40%30.12 "Hg2 mi
9:00 am63 °FHaze.No wind49%30.12 "Hg2 mi
8:30 am61 °FHaze.2 mph52%30.09 "Hg2 mi
8:00 am59 °FHaze.No wind59%30.09 "Hg1 mi
7:30 am54 °FFog.No wind72%30.07 "Hg1 mi
7:00 am54 °FHaze.No wind67%30.07 "Hg1 mi
6:30 am54 °FHaze.No wind67%30.04 "Hg1 mi
6:00 am54 °FHaze.No wind72%30.04 "Hg1 mi
5:00 am55 °FFog.No wind72%30.01 "Hg2 mi
4:30 am55 °FFog.No wind67%30.01 "Hg2 mi
4:00 am55 °FFog.No wind67%30.01 "Hg2 mi
3:30 am55 °FFog.No wind72%30.01 "Hg2 mi
3:00 am55 °FFog.No wind72%30.01 "Hg2 mi
2:30 am59 °FHaze.No wind63%30.04 "Hg2 mi
2:00 am59 °FHaze.No wind63%30.04 "Hg2 mi
1:30 am59 °FHaze.No wind68%30.04 "Hg2 mi
1:00 am61 °FHaze.No wind63%30.07 "Hg2 mi
12:30 am63 °FHaze.No wind64%30.07 "Hg2 mi
12:00 am63 °FHaze.No wind59%30.07 "Hg2 mi
11:30 pm
Tue, Jan 15
61 °FHaze.No wind68%30.07 "Hg2 mi
11:00 pm63 °FHaze.No wind64%30.07 "Hg2 mi
10:30 pm63 °FHaze.No wind64%30.07 "Hg2 mi
10:00 pm64 °FHaze.No wind60%30.07 "Hg2 mi
9:30 pm64 °FHaze.No wind60%30.07 "Hg2 mi
9:00 pm66 °FHaze.No wind56%30.07 "Hg2 mi
8:30 pm68 °FHaze.No wind53%30.07 "Hg2 mi
8:00 pm68 °FHaze.No wind53%30.07 "Hg2 mi
7:30 pm68 °FHaze.No wind53%30.04 "Hg2 mi
7:00 pm70 °FHaze.No wind50%30.04 "Hg1 mi
6:30 pm72 °FHaze.No wind47%30.01 "Hg1 mi
6:00 pm73 °FHaze.No wind44%30.01 "Hg1 mi
5:30 pm75 °FHaze.No wind41%30.01 "Hg2 mi
5:00 pm77 °FHaze.No wind39%30.01 "Hg2 mi
4:30 pm79 °FHaze.No wind34%29.98 "Hg2 mi
4:00 pm79 °FHaze.No wind34%29.98 "Hg2 mi
3:30 pm79 °FHaze.No wind32%29.98 "Hg2 mi
3:00 pm79 °FHaze.2 mph34%29.98 "Hg2 mi
Weather by CustomWeather, © 2019

See weather overview